This is the latest recevied weather packets stored in our database for station/object N5PRN. If no packets are shown the sender has not sent any weather packets the latest 10 day(s).
| Time | Temp. | Humidity | Pressure | Rain* | Wind** | Luminosity | Snow |
|---|---|---|---|---|---|---|---|
| 1777902822 | 16.67° C | 84% | 1017.3 hPa | 0 mm | - | 210 W/m² | - |
| 1777902520 | 16.67° C | 83% | 1017.5 hPa | 0 mm | - | 75 W/m² | - |
| 1777902216 | 16.11° C | 85% | 1017.2 hPa | 0 mm | - | 57 W/m² | - |
| 1777901914 | 15.56° C | 88% | 1017.2 hPa | 0 mm | - | 55 W/m² | - |
| 1777901612 | 15° C | 90% | 1017.3 hPa | 0 mm | - | 54 W/m² | - |
| 1777901309 | 14.44° C | 95% | 1017.4 hPa | 0 mm | - | 57 W/m² | - |
| 1777901006 | 13.89° C | 97% | 1017.3 hPa | 0 mm | - | 51 W/m² | - |
| 1777900704 | 13.33° C | 98% | 1017.2 hPa | 0 mm | - | 50 W/m² | - |
| 1777900401 | 13.33° C | 99% | 1017.3 hPa | 0 mm | - | 49 W/m² | - |
| 1777900098 | 12.78° C | 99% | 1017.3 hPa | 0 mm | - | 48 W/m² | - |
| 1777899794 | 12.78° C | 99% | 1017.2 hPa | 0 mm | - | 46 W/m² | - |
| 1777899492 | 12.22° C | 99% | 1017 hPa | 0 mm | - | 45 W/m² | - |
| 1777899189 | 11.67° C | 99% | 1017.1 hPa | 0 mm | - | 44 W/m² | - |
| 1777898886 | 11.11° C | 99% | 1017.1 hPa | 0 mm | - | 42 W/m² | - |
| 1777898583 | 11.11° C | 99% | 1017.1 hPa | 0 mm | - | 41 W/m² | - |
| 1777898281 | 10.56° C | 99% | 1017 hPa | 0 mm | - | 39 W/m² | - |
| 1777897978 | 10.56° C | 99% | 1017.3 hPa | 0 mm | - | 37 W/m² | - |
| 1777897673 | 10.56° C | 99% | 1017 hPa | 0 mm | - | 35 W/m² | - |
| 1777897370 | 10.56° C | 99% | 1017.1 hPa | 0 mm | - | 32 W/m² | - |
| 1777897066 | 10° C | 99% | 1016.9 hPa | 0 mm | - | 31 W/m² | - |
| 1777896763 | 10° C | 99% | 1017 hPa | 0 mm | - | 29 W/m² | - |
| 1777896460 | 10° C | 99% | 1017.1 hPa | 0 mm | - | 26 W/m² | - |
| 1777896157 | 10° C | 99% | 1016.9 hPa | 0 mm | - | 24 W/m² | - |
| 1777895855 | 10° C | 99% | 1016.5 hPa | 0 mm | - | 19 W/m² | - |
| 1777895552 | 10° C | 99% | 1016.5 hPa | 0 mm | - | 17 W/m² | - |
* Rain latest hour (hover to see other rain measurements)
** Current wind speed in m/s (hover to see current wind gust speed)